Location: ??? ????
(38.0580°N, 23.1536°E)
Time: 14:19:53
(UTC+00:00)

Hubble Space Telescope - Pass Details

Date: 13 December 2025
Orbit: 479 x 481 km, 28.5° (Epoch: 17 January)

Event Time Altitude Azimuth Distance (km) Brightness Sun altitude
Rises 17:18:01 0° 249° (WSW) 2,528 5.5 -24.7°
Reaches altitude 10° 17:20:43 10° 230° (SW) 1,648 4.0 -25.3°
Enters shadow 17:23:01 18° 193° (SSW) 1,238 2.8 -25.7°
